Location: Keewatin
(47.4004°N, 93.0827°W)
Time: 20:57:30
(UTC+00:00)

KKS-1 - Pass Details

Date: 29 February 2020
Orbit: 637 x 650 km, 98.3° (Epoch: 09 April)

Event Time Altitude Azimuth Distance (km) Brightness Sun altitude
Rises 03:44:11 0° 358° (N) 2,952 ? -37.8°
Reaches altitude 10° 03:47:15 10° 335° (NNW) 2,037 ? -38.2°
Enters shadow 03:49:07 14° 310° (NW) 1,757 ? -38.4°
